UKV21MR EGKK-LEPA

Flight info

Callsign UKV21MR
Flight time 1h 54m
Altitude 33000
Route SFD Y47 DRAKE L151 SITET UN859 SOPIL DCT BALAN DCT EVPOK DCT NARAK DCT GAI DCT LOMRA DCT ROCAN DCT IBRAP DCT LUKEV DCT LORES
Aircraft A320/M-SDE3FGHIRWY/LB1

Departure

Time 2026-05-04 17:10
Airport London Gatwick Airport (EGKK)

Arrival

Time 2026-05-04 19:05
Airport Palma de Mallorca Airport (LEPA)
Time Latitude Longitude Altitude Speed Heading
2026-05-04 16:46 51.15660 -0.17699 213 ft 0 kts 167°
2026-05-04 16:56 51.15661 -0.17699 205 ft 1 kts 167°
2026-05-04 16:57 51.15684 -0.17706 217 ft 4 kts 174°
2026-05-04 16:57 51.15734 -0.17694 217 ft 4 kts 231°
2026-05-04 16:58 51.15741 -0.17673 211 ft 0 kts 255°
2026-05-04 17:00 51.15722 -0.17786 205 ft 14 kts 255°
2026-05-04 17:01 51.15657 -0.18261 209 ft 27 kts 258°
2026-05-04 17:01 51.15565 -0.18817 207 ft 22 kts 212°
2026-05-04 17:02 51.15271 -0.18732 213 ft 22 kts 169°
2026-05-04 17:02 51.15108 -0.18893 209 ft 15 kts 257°
2026-05-04 17:03 51.15087 -0.19046 214 ft 13 kts 257°
2026-05-04 17:03 51.15068 -0.19183 208 ft 13 kts 258°
2026-05-04 17:03 51.15027 -0.19510 215 ft 18 kts 256°
2026-05-04 17:04 51.14959 -0.19952 205 ft 21 kts 256°
2026-05-04 17:04 51.14898 -0.20392 211 ft 19 kts 260°
2026-05-04 17:05 51.14784 -0.20686 213 ft 15 kts 209°
2026-05-04 17:05 51.14753 -0.20805 213 ft 4 kts 258°
2026-05-04 17:06 51.14731 -0.20967 207 ft 14 kts 256°
2026-05-04 17:06 51.14707 -0.21127 210 ft 14 kts 257°
2026-05-04 17:07 51.14632 -0.21333 205 ft 3 kts 172°
2026-05-04 17:07 51.14629 -0.21332 205 ft 0 kts 172°
2026-05-04 17:08 51.14602 -0.21326 205 ft 9 kts 171°
2026-05-04 17:08 51.14524 -0.21149 206 ft 0 kts 78°
2026-05-04 17:09 51.14546 -0.20978 209 ft 47 kts 78°
2026-05-04 17:10 51.14884 -0.18601 254 ft 158 kts 77°
2026-05-04 17:10 51.15570 -0.13481 1998 ft 178 kts 88°
2026-05-04 17:11 51.15146 -0.11514 2268 ft 205 kts 127°
2026-05-04 17:11 51.14065 -0.09880 2544 ft 230 kts 139°
2026-05-04 17:11 51.11294 -0.06478 3775 ft 264 kts 141°
2026-05-04 17:12 51.09822 -0.04682 4688 ft 268 kts 141°
2026-05-04 17:12 51.06836 -0.00968 6541 ft 275 kts 141°
2026-05-04 17:13 51.02268 0.04811 9172 ft 284 kts 146°
2026-05-04 17:14 50.96273 0.06078 10789 ft 325 kts 183°
2026-05-04 17:14 50.93947 0.05898 11196 ft 341 kts 183°
2026-05-04 17:14 50.89121 0.05507 12564 ft 352 kts 183°
2026-05-04 17:15 50.86661 0.05319 13281 ft 356 kts 182°
2026-05-04 17:15 50.81645 0.04958 14654 ft 363 kts 182°
2026-05-04 17:16 50.76589 0.04608 15990 ft 368 kts 182°
2026-05-04 17:16 50.68798 0.04066 17913 ft 377 kts 182°
2026-05-04 17:17 50.66160 0.03882 18510 ft 380 kts 182°
2026-05-04 17:17 50.58196 0.03313 20187 ft 386 kts 182°
2026-05-04 17:18 50.55500 0.03126 20762 ft 387 kts 182°
2026-05-04 17:18 50.50083 0.02758 21876 ft 390 kts 182°
2026-05-04 17:19 50.44672 0.02393 22931 ft 393 kts 182°
2026-05-04 17:19 50.39179 0.02014 23933 ft 395 kts 182°
2026-05-04 17:20 50.33684 0.01619 24770 ft 398 kts 182°
2026-05-04 17:20 50.28101 0.01234 25560 ft 402 kts 182°
2026-05-04 17:20 50.25296 0.01048 25944 ft 404 kts 182°
2026-05-04 17:21 50.19688 0.00662 26699 ft 407 kts 182°
2026-05-04 17:21 50.14008 0.00267 27497 ft 410 kts 182°
2026-05-04 17:22 50.11138 0.00159 27853 ft 412 kts 178°
2026-05-04 17:22 50.08284 0.00686 28197 ft 414 kts 169°
2026-05-04 17:23 49.99881 0.03999 29188 ft 420 kts 166°
2026-05-04 17:23 49.97045 0.05121 29502 ft 422 kts 166°
2026-05-04 17:23 49.91323 0.07367 30100 ft 425 kts 166°
2026-05-04 17:24 49.88448 0.08491 30358 ft 427 kts 166°
2026-05-04 17:24 49.79858 0.11846 31452 ft 423 kts 167°
2026-05-04 17:25 49.77005 0.12957 31819 ft 422 kts 167°
2026-05-04 17:25 49.71296 0.15174 32569 ft 420 kts 167°
2026-05-04 17:26 49.65647 0.17379 32993 ft 417 kts 167°
2026-05-04 17:27 49.51720 0.23037 32995 ft 413 kts 166°
2026-05-04 17:28 49.40599 0.27475 32975 ft 413 kts 167°
2026-05-04 17:29 49.23923 0.34237 32968 ft 413 kts 166°
2026-05-04 17:31 49.10097 0.40117 32963 ft 413 kts 166°
2026-05-04 17:32 48.96243 0.45888 32938 ft 413 kts 166°
2026-05-04 17:33 48.85147 0.50513 32938 ft 415 kts 167°
2026-05-04 17:34 48.73963 0.55078 32947 ft 416 kts 167°
2026-05-04 17:35 48.59956 0.60500 32952 ft 415 kts 168°
2026-05-04 17:36 48.54357 0.62689 32956 ft 415 kts 167°
2026-05-04 17:36 48.48764 0.64900 32957 ft 415 kts 167°
2026-05-04 17:37 48.43188 0.67178 32952 ft 415 kts 167°
2026-05-04 17:37 48.37623 0.69465 32959 ft 415 kts 167°
2026-05-04 17:38 48.32079 0.71715 32962 ft 414 kts 167°
2026-05-04 17:38 48.26510 0.73953 32957 ft 414 kts 167°
2026-05-04 17:39 48.18190 0.77256 32954 ft 413 kts 168°
2026-05-04 17:39 48.12625 0.79440 32953 ft 412 kts 168°
2026-05-04 17:40 48.07119 0.81603 32955 ft 411 kts 168°
2026-05-04 17:40 48.01575 0.83774 32950 ft 411 kts 168°
2026-05-04 17:41 47.96038 0.85935 32925 ft 410 kts 168°
2026-05-04 17:41 47.90543 0.88068 32926 ft 410 kts 168°
2026-05-04 17:42 47.85015 0.90213 32929 ft 410 kts 168°
2026-05-04 17:42 47.79490 0.92355 32920 ft 410 kts 168°
2026-05-04 17:43 47.74003 0.94483 32932 ft 408 kts 168°
2026-05-04 17:43 47.68501 0.96617 32944 ft 407 kts 168°
2026-05-04 17:44 47.63011 0.98732 32945 ft 407 kts 168°
2026-05-04 17:44 47.57560 1.00828 32938 ft 406 kts 168°
2026-05-04 17:45 47.52081 1.02932 32944 ft 405 kts 168°
2026-05-04 17:45 47.46656 1.05007 32941 ft 404 kts 168°
2026-05-04 17:46 47.41145 1.06406 32940 ft 400 kts 181°
2026-05-04 17:46 47.35575 1.06286 32942 ft 399 kts 182°
2026-05-04 17:47 47.30020 1.06148 32939 ft 398 kts 182°
2026-05-04 17:47 47.24507 1.06019 32941 ft 398 kts 182°
2026-05-04 17:48 47.18963 1.05886 32938 ft 397 kts 182°
2026-05-04 17:48 47.13433 1.05755 32928 ft 397 kts 182°
2026-05-04 17:49 47.07935 1.05624 32927 ft 397 kts 182°
2026-05-04 17:49 47.02410 1.05498 32925 ft 397 kts 182°
2026-05-04 17:50 46.96908 1.05312 32933 ft 397 kts 183°
2026-05-04 17:50 46.91394 1.05051 32927 ft 396 kts 183°
2026-05-04 17:51 46.85876 1.04792 32923 ft 396 kts 183°
2026-05-04 17:51 46.80354 1.04545 32930 ft 396 kts 183°
2026-05-04 17:52 46.74872 1.04314 32933 ft 396 kts 183°
2026-05-04 17:52 46.69355 1.04083 32933 ft 396 kts 183°
2026-05-04 17:53 46.63840 1.03850 32927 ft 396 kts 182°
2026-05-04 17:53 46.58329 1.03621 32928 ft 396 kts 183°
2026-05-04 17:54 46.52852 1.03418 32925 ft 396 kts 180°
2026-05-04 17:54 46.47408 1.04740 32920 ft 398 kts 169°
2026-05-04 17:55 46.42910 1.06256 32927 ft 398 kts 169°
2026-05-04 17:55 46.37501 1.08062 32926 ft 398 kts 169°
2026-05-04 17:56 46.32093 1.09860 32920 ft 398 kts 169°
2026-05-04 17:56 46.26682 1.11660 32918 ft 398 kts 169°
2026-05-04 17:57 46.21311 1.13437 32924 ft 398 kts 169°
2026-05-04 17:57 46.15900 1.15231 32913 ft 398 kts 169°
2026-05-04 17:58 46.10495 1.17020 32908 ft 398 kts 169°
2026-05-04 17:58 46.05125 1.18796 32912 ft 398 kts 170°
2026-05-04 17:59 45.99721 1.20578 32899 ft 398 kts 170°
2026-05-04 18:00 45.91596 1.23250 32895 ft 399 kts 170°
2026-05-04 18:00 45.86214 1.25012 32902 ft 398 kts 170°
2026-05-04 18:01 45.80809 1.26775 32909 ft 398 kts 170°
2026-05-04 18:01 45.75396 1.28541 32913 ft 398 kts 170°
2026-05-04 18:02 45.67285 1.31184 32933 ft 398 kts 170°
2026-05-04 18:02 45.61919 1.32929 32932 ft 397 kts 170°
2026-05-04 18:03 45.56524 1.34678 32931 ft 397 kts 170°
2026-05-04 18:03 45.51127 1.36431 32938 ft 397 kts 170°
2026-05-04 18:04 45.45777 1.38157 32936 ft 396 kts 170°
2026-05-04 18:05 45.37690 1.40765 32936 ft 396 kts 170°
2026-05-04 18:05 45.32349 1.42476 32932 ft 396 kts 170°
2026-05-04 18:06 45.24271 1.45065 32931 ft 396 kts 170°
2026-05-04 18:06 45.18887 1.46790 32933 ft 396 kts 170°
2026-05-04 18:07 45.13533 1.48497 32930 ft 396 kts 170°
2026-05-04 18:07 45.08155 1.50216 32933 ft 396 kts 170°
2026-05-04 18:08 45.02775 1.51922 32937 ft 396 kts 170°
2026-05-04 18:08 44.97393 1.53625 32904 ft 396 kts 170°
2026-05-04 18:09 44.86620 1.57042 32924 ft 398 kts 170°
2026-05-04 18:10 44.81189 1.58758 32926 ft 399 kts 170°
2026-05-04 18:10 44.75792 1.60456 32934 ft 399 kts 170°
2026-05-04 18:11 44.70357 1.62157 32937 ft 399 kts 170°
2026-05-04 18:11 44.64972 1.63848 32938 ft 399 kts 170°
2026-05-04 18:12 44.59539 1.65549 32925 ft 399 kts 170°
2026-05-04 18:12 44.54115 1.67244 32929 ft 399 kts 170°
2026-05-04 18:13 44.48711 1.68930 32931 ft 399 kts 170°
2026-05-04 18:14 44.40566 1.71463 32920 ft 399 kts 170°
2026-05-04 18:14 44.35136 1.73150 32921 ft 400 kts 170°
2026-05-04 18:15 44.24258 1.76226 32929 ft 399 kts 173°
2026-05-04 18:16 44.18758 1.77357 32922 ft 399 kts 174°
2026-05-04 18:16 44.13286 1.78486 32920 ft 399 kts 173°
2026-05-04 18:17 44.05036 1.80289 32927 ft 400 kts 173°
2026-05-04 18:18 43.96825 1.82111 32919 ft 400 kts 173°
2026-05-04 18:18 43.91318 1.83035 32923 ft 398 kts 177°
2026-05-04 18:19 43.83001 1.83682 32932 ft 398 kts 179°
2026-05-04 18:19 43.77462 1.84144 32926 ft 398 kts 178°
2026-05-04 18:20 43.71957 1.84683 32947 ft 399 kts 178°
2026-05-04 18:20 43.66423 1.85231 32946 ft 399 kts 178°
2026-05-04 18:21 43.60884 1.85773 32940 ft 399 kts 178°
2026-05-04 18:21 43.55327 1.86314 32942 ft 399 kts 178°
2026-05-04 18:22 43.49810 1.86844 32935 ft 400 kts 178°
2026-05-04 18:22 43.44242 1.87379 32943 ft 400 kts 178°
2026-05-04 18:23 43.38689 1.87904 32928 ft 400 kts 178°
2026-05-04 18:23 43.33146 1.88427 32933 ft 401 kts 178°
2026-05-04 18:24 43.27583 1.88953 32941 ft 401 kts 178°
2026-05-04 18:24 43.21987 1.89496 32943 ft 401 kts 178°
2026-05-04 18:25 43.16414 1.90038 32932 ft 402 kts 178°
2026-05-04 18:25 43.10845 1.90567 32934 ft 402 kts 178°
2026-05-04 18:26 43.05264 1.91089 32928 ft 404 kts 178°
2026-05-04 18:26 42.99635 1.91624 32923 ft 406 kts 179°
2026-05-04 18:27 42.93997 1.92162 32926 ft 407 kts 179°
2026-05-04 18:27 42.88337 1.92694 32931 ft 408 kts 179°
2026-05-04 18:28 42.82666 1.93223 32929 ft 408 kts 179°
2026-05-04 18:28 42.76992 1.93762 32933 ft 409 kts 179°
2026-05-04 18:29 42.71297 1.94300 32934 ft 409 kts 179°
2026-05-04 18:29 42.65674 1.95256 32929 ft 413 kts 169°
2026-05-04 18:30 42.57306 1.98290 32923 ft 415 kts 169°
2026-05-04 18:31 42.51711 2.00302 32923 ft 415 kts 170°
2026-05-04 18:31 42.46156 2.02296 32926 ft 416 kts 170°
2026-05-04 18:32 42.40554 2.04294 32926 ft 416 kts 170°
2026-05-04 18:32 42.34942 2.06298 32925 ft 416 kts 171°
2026-05-04 18:33 42.29342 2.08290 32926 ft 416 kts 171°
2026-05-04 18:33 42.23768 2.10268 32922 ft 416 kts 171°
2026-05-04 18:34 42.18156 2.12253 32929 ft 416 kts 171°
2026-05-04 18:34 42.12542 2.14239 32918 ft 416 kts 171°
2026-05-04 18:35 42.06968 2.16211 32919 ft 417 kts 171°
2026-05-04 18:35 42.01352 2.18185 32926 ft 417 kts 171°
2026-05-04 18:36 41.95736 2.20161 32899 ft 417 kts 171°
2026-05-04 18:36 41.90118 2.22135 32909 ft 417 kts 172°
2026-05-04 18:37 41.84521 2.24092 32913 ft 418 kts 172°
2026-05-04 18:37 41.78889 2.26065 32916 ft 418 kts 172°
2026-05-04 18:38 41.73248 2.28038 32911 ft 420 kts 172°
2026-05-04 18:38 41.67614 2.29994 32907 ft 420 kts 172°
2026-05-04 18:39 41.61947 2.31971 32916 ft 420 kts 172°
2026-05-04 18:39 41.56294 2.33936 32919 ft 419 kts 172°
2026-05-04 18:40 41.50640 2.35902 32891 ft 419 kts 172°
2026-05-04 18:40 41.45015 2.37847 32916 ft 420 kts 172°
2026-05-04 18:41 41.39339 2.39817 32926 ft 421 kts 172°
2026-05-04 18:41 41.33666 2.41781 32925 ft 420 kts 172°
2026-05-04 18:42 41.28034 2.43715 32903 ft 420 kts 172°
2026-05-04 18:42 41.22357 2.45666 32909 ft 420 kts 172°
2026-05-04 18:43 41.16693 2.47616 32920 ft 420 kts 172°
2026-05-04 18:43 41.11984 2.49233 32911 ft 420 kts 172°
2026-05-04 18:44 41.05398 2.51482 32905 ft 420 kts 172°
2026-05-04 18:44 41.00678 2.53093 32895 ft 421 kts 172°
2026-05-04 18:44 40.97832 2.54062 32629 ft 422 kts 172°
2026-05-04 18:45 40.94982 2.55034 31689 ft 426 kts 172°
2026-05-04 18:45 40.92082 2.56020 30729 ft 430 kts 172°
2026-05-04 18:45 40.89184 2.57004 30003 ft 428 kts 172°
2026-05-04 18:45 40.86319 2.57982 29345 ft 422 kts 172°
2026-05-04 18:46 40.83531 2.58937 28750 ft 415 kts 172°
2026-05-04 18:46 40.80748 2.59892 28148 ft 410 kts 172°
2026-05-04 18:46 40.78000 2.60830 27553 ft 405 kts 172°
2026-05-04 18:46 40.75290 2.61748 26973 ft 400 kts 172°
2026-05-04 18:47 40.72605 2.62654 26396 ft 395 kts 172°
2026-05-04 18:47 40.69980 2.63539 25839 ft 391 kts 172°
2026-05-04 18:47 40.67356 2.64424 25270 ft 387 kts 172°
2026-05-04 18:47 40.64750 2.65304 24730 ft 384 kts 172°
2026-05-04 18:48 40.62170 2.66172 24183 ft 380 kts 173°
2026-05-04 18:48 40.59613 2.67031 23656 ft 377 kts 173°
2026-05-04 18:48 40.57110 2.67871 23099 ft 373 kts 172°
2026-05-04 18:48 40.54607 2.68715 22608 ft 368 kts 172°
2026-05-04 18:49 40.52145 2.69545 22131 ft 363 kts 172°
2026-05-04 18:49 40.49740 2.70565 21673 ft 365 kts 163°
2026-05-04 18:49 40.47472 2.72082 21220 ft 366 kts 158°
2026-05-04 18:49 40.45260 2.73702 20768 ft 362 kts 157°
2026-05-04 18:50 40.43056 2.75310 20304 ft 360 kts 157°
2026-05-04 18:50 40.40872 2.76896 19847 ft 358 kts 157°
2026-05-04 18:50 40.38690 2.78477 19378 ft 357 kts 157°
2026-05-04 18:50 40.36540 2.80033 18902 ft 356 kts 157°
2026-05-04 18:51 40.34371 2.81597 18428 ft 356 kts 157°
2026-05-04 18:51 40.32203 2.83159 17890 ft 356 kts 156°
2026-05-04 18:51 40.30038 2.84720 17488 ft 351 kts 156°
2026-05-04 18:51 40.27933 2.86244 17363 ft 339 kts 156°
2026-05-04 18:52 40.25895 2.87710 17139 ft 329 kts 159°
2026-05-04 18:52 40.23741 2.88739 16173 ft 332 kts 169°
2026-05-04 18:52 40.21523 2.89586 15219 ft 336 kts 169°
2026-05-04 18:52 40.19286 2.90434 14722 ft 334 kts 168°
2026-05-04 18:53 40.17056 2.91277 14255 ft 333 kts 168°
2026-05-04 18:53 40.14825 2.92120 13779 ft 333 kts 168°
2026-05-04 18:53 40.12595 2.92963 13256 ft 332 kts 168°
2026-05-04 18:53 40.10381 2.93806 12783 ft 330 kts 168°
2026-05-04 18:54 40.08177 2.94652 12304 ft 329 kts 168°
2026-05-04 18:54 40.05983 2.95491 11813 ft 327 kts 168°
2026-05-04 18:54 40.03803 2.96319 11326 ft 326 kts 168°
2026-05-04 18:54 40.01655 2.97133 10836 ft 325 kts 168°
2026-05-04 18:55 39.99490 2.97954 10444 ft 321 kts 168°
2026-05-04 18:55 39.95379 2.99519 10258 ft 294 kts 169°
2026-05-04 18:55 39.93442 3.00253 10138 ft 286 kts 169°
2026-05-04 18:56 39.91532 3.00972 10004 ft 284 kts 169°
2026-05-04 18:56 39.89629 3.01686 9772 ft 285 kts 169°
2026-05-04 18:56 39.87740 3.02394 9322 ft 286 kts 169°
2026-05-04 18:56 39.85783 3.02826 8597 ft 286 kts 186°
2026-05-04 18:57 39.83850 3.02373 7841 ft 279 kts 198°
2026-05-04 18:57 39.81988 3.01737 7126 ft 275 kts 198°
2026-05-04 18:57 39.80134 3.01095 6656 ft 275 kts 199°
2026-05-04 18:57 39.78288 3.00456 6257 ft 272 kts 199°
2026-05-04 18:58 39.76471 2.99827 5862 ft 269 kts 199°
2026-05-04 18:58 39.74679 2.99209 5495 ft 261 kts 199°
2026-05-04 18:58 39.72972 2.98626 5158 ft 247 kts 199°
2026-05-04 18:58 39.71345 2.98070 4843 ft 242 kts 199°
2026-05-04 18:59 39.69731 2.97516 4507 ft 238 kts 199°
2026-05-04 18:59 39.68148 2.96973 4180 ft 231 kts 199°
2026-05-04 18:59 39.66629 2.96452 3877 ft 220 kts 199°
2026-05-04 18:59 39.65224 2.95833 3586 ft 207 kts 213°
2026-05-04 19:00 39.64219 2.94546 3284 ft 204 kts 236°
2026-05-04 19:00 39.63459 2.92991 2990 ft 202 kts 238°
2026-05-04 19:00 39.62749 2.91477 2738 ft 190 kts 238°
2026-05-04 19:00 39.62089 2.90069 2480 ft 180 kts 238°
2026-05-04 19:01 39.61462 2.88734 2272 ft 166 kts 237°
2026-05-04 19:01 39.60887 2.87496 2031 ft 154 kts 240°
2026-05-04 19:01 39.60530 2.86216 1761 ft 149 kts 255°
2026-05-04 19:01 39.60378 2.84943 1598 ft 137 kts 258°
2026-05-04 19:02 39.60321 2.83733 1554 ft 132 kts 258°
2026-05-04 19:02 39.60159 2.82588 1561 ft 127 kts 247°
2026-05-04 19:02 39.59772 2.81552 1463 ft 129 kts 237°
2026-05-04 19:02 39.59248 2.80606 1286 ft 128 kts 232°
2026-05-04 19:03 39.58761 2.79634 1070 ft 128 kts 237°
2026-05-04 19:03 39.58297 2.78655 823 ft 130 kts 237°
2026-05-04 19:03 39.57810 2.77657 691 ft 131 kts 237°
2026-05-04 19:03 39.57344 2.76635 489 ft 133 kts 239°
2026-05-04 19:04 39.56872 2.75634 362 ft 130 kts 238°
2026-05-04 19:04 39.56404 2.74642 134 ft 125 kts 236°
2026-05-04 19:04 39.55974 2.73742 38 ft 104 kts 239°
2026-05-04 19:04 39.55687 2.73135 38 ft 54 kts 239°
2026-05-04 19:05 39.55546 2.72835 38 ft 30 kts 237°
2026-05-04 19:05 39.55404 2.72678 38 ft 22 kts 208°
2026-05-04 19:05 39.55326 2.72624 38 ft 5 kts 208°
2026-05-04 19:05 39.55287 2.72598 38 ft 8 kts 208°
2026-05-04 19:06 39.55232 2.72560 38 ft 10 kts 209°
2026-05-04 19:06 39.55172 2.72497 38 ft 12 kts 217°
2026-05-04 19:06 39.55096 2.72510 38 ft 13 kts 148°
2026-05-04 19:06 39.55042 2.72598 38 ft 12 kts 85°
2026-05-04 19:07 39.55083 2.72684 38 ft 11 kts 59°
2026-05-04 19:07 39.55093 2.72762 36 ft 8 kts 129°
2026-05-04 19:07 39.55058 2.72795 38 ft 3 kts 145°
2026-05-04 19:07 39.55055 2.72798 38 ft 0 kts 145°